Weather History for Knoxville, TN

Change the Weather History Date:

Saturday, October 6, 2012

  Actual Average Record
Temperature  
Mean Temperature 59 °F 63 °F  
Max Temperature 65 °F 74 °F 93 °F (1884)
Min Temperature 53 °F 52 °F 34 °F (1985)
Degree Days  
Heating Degree Days 6 4  
Month to date heating degree days 6 19  
Since 1 July heating degree days 21 42  
Cooling Degree Days 0 2  
Month to date cooling degree days 14 14  
Year to date cooling degree days 1723 1501  
Growing Degree Days 8 (Base 50)    
Moisture  
Dew Point 51 °F    
Average Humidity 81    
Maximum Humidity 90    
Minimum Humidity 72    
Precipitation  
Precipitation 0.01 in 0.08 in 1.43 in (1883)
Month to date precipitation 0.65 0.52  
Year to date precipitation 44.27 37.36  
Snow  
Snow 0.00 in 0.00 in - ()
Month to date snowfall 0.0 0.0  
Since 1 July snowfall 0.0 0.0  
Since 1 September snowfall 0.0 0.0  
Snow Depth 0.00 in    
Sea Level Pressure  
Sea Level Pressure 30.03 in    
Wind  
Wind Speed 6 mph (North)    
Max Wind Speed 13 mph    
Max Gust Speed 16 mph    
Visibility 8 miles    
Events Rain    
T = Trace of Precipitation, MM = Missing Value Source: NWS Daily Summary

Daily Weather History Graph

Daily Weather History Graph

Search for Another Location

Airport:

Trip Planner

Search our weather history database for the weather conditions in past years. The results will help you decide how hot, cold, wet, or windy it might be!

Date:

Astronomy

Oct. 06, 2012 Rise Set
Actual Time 7:35 AM EDT 7:11 PM EDT
Civil Twilight 7:09 AM EDT 7:37 PM EDT
Nautical Twilight 6:40 AM EDT 8:06 PM EDT
Astronomical Twilight 6:10 AM EDT 8:36 PM EDT
Moon 11:35 PM EDT (10/6) 1:20 PM EDT (10/6)
Length of Visible Light 12h 27m
Length of Day
11h 36m
Waning Gibbous, 65% of the Moon is Illuminated
Oct 6
Waning Gibbous
Oct 8
Last Quarter
Oct 15
New
Oct 21
First Quarter
Oct 29
Full

Hourly Weather History & Observations

Time (EDT) Temp. Dew Point Humidity Pressure Visibility Wind Dir Wind Speed Gust Speed Precip Events Conditions
12:53 AM 63.0 °F 57.0 °F 81% 29.99 in 10.0 mi South 5.8 mph - N/A   Scattered Clouds
1:53 AM 63.0 °F 55.9 °F 78% 29.96 in 10.0 mi SSW 5.8 mph - N/A   Clear
2:53 AM 64.0 °F 55.9 °F 75% 29.94 in 10.0 mi SSW 6.9 mph - N/A   Clear
3:53 AM 64.9 °F 55.0 °F 70% 29.94 in 10.0 mi West 4.6 mph - N/A   Clear
4:53 AM 62.1 °F 55.9 °F 80% 29.96 in 10.0 mi WSW 5.8 mph - N/A   Partly Cloudy
5:53 AM 63.0 °F 57.0 °F 81% 29.97 in 10.0 mi WSW 6.9 mph - N/A   Overcast
6:53 AM 63.0 °F 57.0 °F 81% 30.00 in 10.0 mi West 8.1 mph - 0.00 in Rain Light Rain
7:53 AM 61.0 °F 57.9 °F 90% 29.99 in 7.0 mi West 4.6 mph - 0.01 in   Scattered Clouds
8:38 AM 62.6 °F 59.0 °F 88% 30.02 in 6.0 mi West 9.2 mph - 0.00 in   Overcast
8:53 AM 62.1 °F 59.0 °F 90% 30.00 in 6.0 mi West 8.1 mph - 0.00 in   Mostly Cloudy
9:53 AM 62.1 °F 57.9 °F 86% 30.02 in 10.0 mi WNW 5.8 mph - N/A   Overcast
10:25 AM 60.8 °F 55.4 °F 82% 30.05 in 10.0 mi North 11.5 mph - N/A   Overcast
10:53 AM 57.9 °F 54.0 °F 87% 30.05 in 10.0 mi North 11.5 mph 16.1 mph N/A   Overcast
11:10 AM 57.2 °F 51.8 °F 82% 30.07 in 10.0 mi North 11.5 mph - N/A   Overcast
11:53 AM 55.9 °F 50.0 °F 80% 30.06 in 10.0 mi North 9.2 mph - N/A   Overcast
12:53 PM 54.0 °F 50.0 °F 86% 30.07 in 2.0 mi North 10.4 mph - 0.00 in Rain Light Rain
1:04 PM 53.6 °F 50.0 °F 88% 30.09 in 2.0 mi North 6.9 mph - 0.00 in Rain Light Rain
1:11 PM 53.6 °F 50.0 °F 88% 30.09 in 1.5 mi NNE 6.9 mph - 0.00 in Rain Light Rain
1:34 PM 53.6 °F 48.2 °F 82% 30.08 in 1.5 mi North 6.9 mph - 0.00 in Rain Light Rain
1:41 PM 53.6 °F 48.2 °F 82% 30.08 in 2.5 mi NNE 6.9 mph - 0.00 in Rain Light Rain
1:53 PM 54.0 °F 48.9 °F 83% 30.06 in 2.5 mi NNE 8.1 mph - 0.00 in   Haze
2:17 PM 53.6 °F 48.2 °F 82% 30.06 in 4.0 mi North 5.8 mph - 0.00 in   Haze
2:53 PM 54.0 °F 50.0 °F 86% 30.04 in 7.0 mi NE 6.9 mph - 0.00 in   Overcast
3:53 PM 55.0 °F 48.0 °F 77% 30.03 in 10.0 mi NNE 3.5 mph - N/A   Overcast
4:53 PM 55.0 °F 48.0 °F 77% 30.04 in 10.0 mi North 3.5 mph - N/A   Overcast
5:01 PM 55.4 °F 48.2 °F 77% 30.05 in 10.0 mi NW 3.5 mph - N/A   Overcast
5:53 PM 55.0 °F 48.0 °F 77% 30.04 in 10.0 mi NNE 4.6 mph - N/A   Overcast
6:00 PM 55.4 °F 48.2 °F 77% 30.05 in 10.0 mi North 3.5 mph - N/A   Overcast
6:19 PM 55.4 °F 48.2 °F 77% 30.05 in 10.0 mi North 6.9 mph - N/A   Overcast
6:26 PM 55.4 °F 46.4 °F 72% 30.05 in 10.0 mi NNE 8.1 mph - N/A   Overcast
6:53 PM 55.0 °F 46.9 °F 74% 30.04 in 10.0 mi North 6.9 mph - N/A   Overcast
7:12 PM 55.4 °F 46.4 °F 72% 30.07 in 10.0 mi North 5.8 mph - N/A   Overcast
7:53 PM 55.0 °F 46.9 °F 74% 30.08 in 10.0 mi North 4.6 mph - N/A   Overcast
8:53 PM 55.0 °F 46.0 °F 72% 30.06 in 10.0 mi NE 5.8 mph - N/A   Overcast
9:53 PM 54.0 °F 46.0 °F 75% 30.06 in 10.0 mi East 3.5 mph - N/A   Overcast
10:53 PM 55.0 °F 46.0 °F 72% 30.08 in 10.0 mi Calm Calm - N/A   Overcast
11:53 PM 54.0 °F 46.0 °F 75% 30.06 in 10.0 mi NNE 4.6 mph - N/A   Overcast